Time,TemperatureF,DewpointF,PressureIn,WindDirection,WindDirectionDegrees,WindSpeedMPH,WindSpeedGustMPH,Humidity,HourlyPrecipIn,Conditions,Clouds,dailyrainin,SoftwareType,DateUTC
2013-05-07 00:01:00,55.7,43.8,29.81,NE,45,0.0,0.0,64,0.00,,,0.00,WUHU21623XXSP,2013-05-07 04:01:00,
2013-05-07 00:06:00,55.5,43.6,29.81,NE,45,0.0,0.0,64,0.00,,,0.00,WUHU21623XXSP,2013-05-07 04:06:00,
2013-05-07 00:38:00,55.0,42.8,29.82,East,90,0.0,0.0,63,0.00,,,0.00,WUHU21623XXSP,2013-05-07 04:38:00,
2013-05-07 01:38:00,54.1,41.5,29.82,ENE,68,0.0,0.0,62,0.00,,,0.00,WUHU21623XXSP,2013-05-07 05:38:00,
2013-05-07 02:38:00,52.1,40.4,29.82,ENE,68,0.0,0.0,64,0.00,,,0.00,WUHU21623XXSP,2013-05-07 06:38:00,
2013-05-07 03:38:00,51.0,39.0,29.82,ENE,68,0.0,0.0,63,0.00,,,0.00,WUHU21623XXSP,2013-05-07 07:38:00,
2013-05-07 04:38:00,48.7,38.3,29.82,ENE,68,0.0,0.0,67,0.00,,,0.00,WUHU21623XXSP,2013-05-07 08:38:00,
2013-05-07 05:38:00,46.9,37.4,29.83,ENE,68,0.0,0.0,69,0.00,,,0.00,WUHU21623XXSP,2013-05-07 09:38:00,
2013-05-07 06:38:00,45.6,36.8,29.84,ESE,113,0.0,0.0,71,0.00,,,0.00,WUHU21623XXSP,2013-05-07 10:38:00,
2013-05-07 07:38:00,53.0,42.5,29.85,East,90,0.0,0.0,67,0.00,,,0.00,WUHU21623XXSP,2013-05-07 11:38:00,
2013-05-07 08:38:00,58.9,42.3,29.87,East,90,0.0,0.0,54,0.00,,,0.00,WUHU21623XXSP,2013-05-07 12:38:00,
2013-05-07 09:38:00,62.7,42.7,29.87,NE,45,0.0,0.0,48,0.00,,,0.00,WUHU21623XXSP,2013-05-07 13:38:00,
2013-05-07 10:38:00,66.7,47.0,29.87,ESE,113,2.0,2.0,49,0.00,,,0.00,WUHU21623XXSP,2013-05-07 14:38:00,
2013-05-07 10:52:00,67.2,46.3,29.87,NNE,22,6.5,6.5,47,0.00,,,0.00,WUHU21623XXSP,2013-05-07 14:52:00,
2013-05-07 10:57:00,67.6,46.6,29.87,NE,45,6.0,6.5,47,0.00,,,0.00,WUHU21623XXSP,2013-05-07 14:57:00,
2013-05-07 11:02:00,67.8,46.8,29.86,NE,45,7.2,7.2,47,0.00,,,0.00,WUHU21623XXSP,2013-05-07 15:02:00,
2013-05-07 11:07:00,68.1,47.7,29.87,ESE,112,10.3,10.3,48,0.00,,,0.00,WUHU21623XXSP,2013-05-07 15:07:00,
2013-05-07 11:12:00,68.5,48.0,29.86,NE,45,4.7,10.3,48,0.00,,,0.00,WUHU21623XXSP,2013-05-07 15:12:00,
2013-05-07 11:17:00,68.8,48.3,29.87,ESE,112,6.9,6.9,48,0.00,,,0.00,WUHU21623XXSP,2013-05-07 15:17:00,
2013-05-07 11:24:00,69.2,48.7,29.86,ENE,67,6.7,6.7,48,0.00,,,0.00,WUHU21623XXSP,2013-05-07 15:24:00,
2013-05-07 11:29:00,69.4,48.3,29.86,ESE,112,0.0,6.7,47,0.00,,,0.00,WUHU21623XXSP,2013-05-07 15:29:00,
2013-05-07 11:34:00,69.6,48.5,29.86,NE,45,4.3,4.3,47,0.00,,,0.00,WUHU21623XXSP,2013-05-07 15:34:00,
2013-05-07 11:39:00,69.9,48.8,29.86,NE,45,7.2,7.2,47,0.00,,,0.00,WUHU21623XXSP,2013-05-07 15:39:00,
2013-05-07 11:44:00,70.1,48.9,29.86,NE,45,4.0,7.2,47,0.00,,,0.00,WUHU21623XXSP,2013-05-07 15:44:00,
2013-05-07 11:49:00,70.3,48.5,29.86,ESE,112,0.0,4.0,46,0.00,,,0.00,WUHU21623XXSP,2013-05-07 15:49:00,
2013-05-07 11:54:00,70.3,48.5,29.86,ENE,67,6.3,6.3,46,0.00,,,0.00,WUHU21623XXSP,2013-05-07 15:54:00,
2013-05-07 11:59:00,70.6,48.8,29.85,NNE,22,6.7,6.7,46,0.00,,,0.00,WUHU21623XXSP,2013-05-07 15:59:00,
2013-05-07 12:04:00,70.8,49.0,29.85,East,90,0.0,6.7,46,0.00,,,0.00,WUHU21623XXSP,2013-05-07 16:04:00,
2013-05-07 12:09:00,71.2,49.3,29.85,East,90,0.0,0.0,46,0.00,,,0.00,WUHU21623XXSP,2013-05-07 16:09:00,
2013-05-07 12:14:00,71.7,49.8,29.85,NE,45,0.0,0.0,46,0.00,,,0.00,WUHU21623XXSP,2013-05-07 16:14:00,
2013-05-07 12:19:00,71.7,49.8,29.85,ENE,67,1.6,1.6,46,0.00,,,0.00,WUHU21623XXSP,2013-05-07 16:19:00,
2013-05-07 12:24:00,72.1,50.8,29.85,NE,45,5.8,5.8,47,0.00,,,0.00,WUHU21623XXSP,2013-05-07 16:24:00,
2013-05-07 12:29:00,72.3,49.7,29.85,NNE,22,6.5,6.5,45,0.00,,,0.00,WUHU21623XXSP,2013-05-07 16:29:00,
2013-05-07 12:34:00,72.1,48.9,29.85,ENE,67,3.8,6.5,44,0.00,,,0.00,WUHU21623XXSP,2013-05-07 16:34:00,
2013-05-07 12:43:00,72.6,50.6,29.85,SE,135,0.0,3.8,46,0.00,,,0.00,WUHU21623XXSP,2013-05-07 16:43:00,
2013-05-07 12:54:00,73.3,50.7,29.85,NNE,22,0.0,0.0,45,0.00,,,0.00,WUHU21623XXSP,2013-05-07 16:54:00,
2013-05-07 12:59:00,73.3,50.7,29.84,NE,45,1.6,1.6,45,0.00,,,0.00,WUHU21623XXSP,2013-05-07 16:59:00,
2013-05-07 13:04:00,73.2,49.9,29.85,NE,45,0.0,1.6,44,0.00,,,0.00,WUHU21623XXSP,2013-05-07 17:04:00,
2013-05-07 13:09:00,73.0,50.4,29.85,NE,45,10.7,10.7,45,0.00,,,0.00,WUHU21623XXSP,2013-05-07 17:09:00,
2013-05-07 13:14:00,73.0,50.4,29.84,NE,45,1.1,10.7,45,0.00,,,0.00,WUHU21623XXSP,2013-05-07 17:14:00,
2013-05-07 13:19:00,73.0,51.0,29.84,ENE,67,7.4,7.4,46,0.00,,,0.00,WUHU21623XXSP,2013-05-07 17:19:00,
2013-05-07 13:24:00,73.0,51.0,29.84,ENE,67,7.4,7.4,46,0.00,,,0.00,WUHU21623XXSP,2013-05-07 17:24:00,
2013-05-07 13:29:00,73.3,51.3,29.84,NNE,22,3.8,7.4,46,0.00,,,0.00,WUHU21623XXSP,2013-05-07 17:29:00,
2013-05-07 13:34:00,73.5,51.5,29.83,NE,45,6.5,6.5,46,0.00,,,0.00,WUHU21623XXSP,2013-05-07 17:34:00,
2013-05-07 13:39:00,73.7,51.6,29.83,NE,45,6.5,6.5,46,0.00,,,0.00,WUHU21623XXSP,2013-05-07 17:39:00,
2013-05-07 13:44:00,73.9,51.8,29.83,NE,45,0.0,6.5,46,0.00,,,0.00,WUHU21623XXSP,2013-05-07 17:44:00,
2013-05-07 13:49:00,73.9,51.8,29.83,NNE,22,1.3,1.3,46,0.00,,,0.00,WUHU21623XXSP,2013-05-07 17:49:00,
2013-05-07 13:54:00,73.9,51.8,29.83,ESE,112,8.7,8.7,46,0.00,,,0.00,WUHU21623XXSP,2013-05-07 17:54:00,
2013-05-07 13:59:00,74.1,52.6,29.83,ENE,67,5.4,8.7,47,0.00,,,0.00,WUHU21623XXSP,2013-05-07 17:59:00,
2013-05-07 14:04:00,74.4,51.7,29.83,East,90,9.2,9.2,45,0.00,,,0.00,WUHU21623XXSP,2013-05-07 18:04:00,
2013-05-07 14:09:00,74.4,51.7,29.83,NE,45,1.1,9.2,45,0.00,,,0.00,WUHU21623XXSP,2013-05-07 18:09:00,
2013-05-07 14:14:00,74.1,52.0,29.83,ENE,67,5.4,5.4,46,0.00,,,0.00,WUHU21623XXSP,2013-05-07 18:14:00,
2013-05-07 14:19:00,74.4,52.3,29.82,NNE,22,6.7,6.7,46,0.00,,,0.00,WUHU21623XXSP,2013-05-07 18:19:00,
2013-05-07 14:24:00,74.6,52.5,29.83,NNE,22,5.8,6.7,46,0.00,,,0.00,WUHU21623XXSP,2013-05-07 18:24:00,
2013-05-07 14:29:00,74.6,51.8,29.83,NE,45,0.0,5.8,45,0.00,,,0.00,WUHU21623XXSP,2013-05-07 18:29:00,
2013-05-07 14:34:00,74.8,52.0,29.82,NE,45,4.7,4.7,45,0.00,,,0.00,WUHU21623XXSP,2013-05-07 18:34:00,
2013-05-07 14:39:00,74.6,51.2,29.82,NNW,337,0.0,4.7,44,0.00,,,0.00,WUHU21623XXSP,2013-05-07 18:39:00,
2013-05-07 14:44:00,74.6,51.8,29.82,NE,45,7.6,7.6,45,0.00,,,0.00,WUHU21623XXSP,2013-05-07 18:44:00,
2013-05-07 14:49:00,74.8,51.4,29.83,NE,45,8.9,8.9,44,0.00,,,0.00,WUHU21623XXSP,2013-05-07 18:49:00,
2013-05-07 14:55:00,74.6,51.2,29.83,East,90,7.2,8.9,44,0.00,,,0.00,WUHU21623XXSP,2013-05-07 18:55:00,
2013-05-07 15:00:00,74.6,51.2,29.83,NW,315,4.7,7.2,44,0.00,,,0.00,WUHU21623XXSP,2013-05-07 19:00:00,
2013-05-07 15:05:00,74.6,51.2,29.82,NE,45,6.9,6.9,44,0.00,,,0.00,WUHU21623XXSP,2013-05-07 19:05:00,
2013-05-07 15:10:00,74.4,51.0,29.82,NE,45,0.0,10.1,44,0.00,,,0.00,WUHU21623XXSP,2013-05-07 19:10:00,
2013-05-07 15:15:00,74.2,50.9,29.82,NNE,22,9.8,10.1,44,0.00,,,0.00,WUHU21623XXSP,2013-05-07 19:15:00,
2013-05-07 15:20:00,74.4,51.0,29.82,NE,45,0.9,9.8,44,0.00,,,0.00,WUHU21623XXSP,2013-05-07 19:20:00,
2013-05-07 15:25:00,74.4,50.4,29.82,NE,45,8.3,8.3,43,0.00,,,0.00,WUHU21623XXSP,2013-05-07 19:25:00,
2013-05-07 15:30:00,74.4,50.4,29.82,NE,45,7.4,8.3,43,0.00,,,0.00,WUHU21623XXSP,2013-05-07 19:30:00,
2013-05-07 15:35:00,74.4,49.7,29.82,NNW,337,0.0,7.4,42,0.00,,,0.00,WUHU21623XXSP,2013-05-07 19:35:00,
2013-05-07 15:40:00,74.2,48.9,29.81,NE,45,6.3,6.3,41,0.00,,,0.00,WUHU21623XXSP,2013-05-07 19:40:00,
2013-05-07 15:45:00,74.1,49.5,29.81,NE,45,11.0,11.0,42,0.00,,,0.00,WUHU21623XXSP,2013-05-07 19:45:00,
2013-05-07 15:50:00,74.1,49.5,29.82,NNE,22,0.0,11.0,42,0.00,,,0.00,WUHU21623XXSP,2013-05-07 19:50:00,
2013-05-07 15:56:00,74.2,49.6,29.82,ENE,67,6.5,6.5,42,0.00,,,0.00,WUHU21623XXSP,2013-05-07 19:56:00,
2013-05-07 16:00:00,74.2,49.6,29.81,NE,45,4.3,6.5,42,0.00,,,0.00,WUHU21623XXSP,2013-05-07 20:00:00,
2013-05-07 16:06:00,74.2,48.9,29.81,NE,45,6.3,6.3,41,0.00,,,0.00,WUHU21623XXSP,2013-05-07 20:06:00,
2013-05-07 16:11:00,74.2,48.9,29.81,NE,45,2.5,6.3,41,0.00,,,0.00,WUHU21623XXSP,2013-05-07 20:11:00,
2013-05-07 16:16:00,74.2,48.9,29.81,NE,45,5.6,5.6,41,0.00,,,0.00,WUHU21623XXSP,2013-05-07 20:16:00,
2013-05-07 16:21:00,74.6,49.9,29.81,ENE,67,4.5,5.6,42,0.00,,,0.00,WUHU21623XXSP,2013-05-07 20:21:00,
2013-05-07 16:26:00,74.6,49.3,29.81,South,180,3.8,4.5,41,0.00,,,0.00,WUHU21623XXSP,2013-05-07 20:26:00,
2013-05-07 16:31:00,74.8,50.1,29.80,NE,45,5.4,5.4,42,0.00,,,0.00,WUHU21623XXSP,2013-05-07 20:31:00,
2013-05-07 16:36:00,74.6,49.9,29.81,East,90,6.7,6.7,42,0.00,,,0.00,WUHU21623XXSP,2013-05-07 20:36:00,
2013-05-07 16:41:00,74.6,49.9,29.80,ENE,67,8.1,9.2,42,0.00,,,0.00,WUHU21623XXSP,2013-05-07 20:41:00,
2013-05-07 16:46:00,74.4,49.7,29.80,East,90,2.7,9.2,42,0.00,,,0.00,WUHU21623XXSP,2013-05-07 20:46:00,
2013-05-07 16:51:00,74.2,48.9,29.81,West,270,1.6,5.6,41,0.00,,,0.00,WUHU21623XXSP,2013-05-07 20:51:00,
2013-05-07 16:56:00,74.4,49.7,29.80,West,270,1.6,5.6,42,0.00,,,0.00,WUHU21623XXSP,2013-05-07 20:56:00,
2013-05-07 17:01:00,74.2,49.6,29.81,NNE,22,3.8,3.8,42,0.00,,,0.00,WUHU21623XXSP,2013-05-07 21:01:00,
2013-05-07 17:08:00,74.4,49.1,29.81,ENE,67,8.3,8.3,41,0.00,,,0.00,WUHU21623XXSP,2013-05-07 21:08:00,
2013-05-07 17:13:00,74.2,48.9,29.80,ENE,67,5.4,8.3,41,0.00,,,0.00,WUHU21623XXSP,2013-05-07 21:13:00,
2013-05-07 17:18:00,74.2,48.9,29.80,NNE,22,6.0,6.0,41,0.00,,,0.00,WUHU21623XXSP,2013-05-07 21:18:00,
2013-05-07 17:23:00,73.9,48.6,29.80,NE,45,0.0,6.0,41,0.00,,,0.00,WUHU21623XXSP,2013-05-07 21:23:00,
2013-05-07 17:28:00,73.7,49.1,29.80,NE,45,2.9,5.6,42,0.00,,,0.00,WUHU21623XXSP,2013-05-07 21:28:00,
2013-05-07 17:33:00,73.9,48.6,29.80,NE,45,0.0,2.9,41,0.00,,,0.00,WUHU21623XXSP,2013-05-07 21:33:00,
2013-05-07 17:40:00,73.7,48.4,29.80,NE,45,1.8,6.7,41,0.00,,,0.00,WUHU21623XXSP,2013-05-07 21:40:00,
2013-05-07 17:45:00,73.9,48.6,29.80,NE,45,6.5,6.5,41,0.00,,,0.00,WUHU21623XXSP,2013-05-07 21:45:00,
2013-05-07 17:53:00,73.9,49.3,29.79,NE,45,0.0,6.5,42,0.00,,,0.00,WUHU21623XXSP,2013-05-07 21:53:00,
2013-05-07 17:58:00,73.9,49.3,29.79,NE,45,0.0,0.0,42,0.00,,,0.00,WUHU21623XXSP,2013-05-07 21:58:00,
2013-05-07 18:03:00,73.7,49.8,29.79,NE,45,0.0,0.0,43,0.00,,,0.00,WUHU21623XXSP,2013-05-07 22:03:00,
2013-05-07 18:08:00,73.9,49.9,29.79,North,0,4.7,4.7,43,0.00,,,0.00,WUHU21623XXSP,2013-05-07 22:08:00,
2013-05-07 18:13:00,73.5,49.6,29.79,NNE,22,4.7,4.7,43,0.00,,,0.00,WUHU21623XXSP,2013-05-07 22:13:00,
2013-05-07 18:18:00,73.3,49.4,29.79,NE,45,6.7,6.7,43,0.00,,,0.00,WUHU21623XXSP,2013-05-07 22:18:00,
2013-05-07 18:23:00,73.0,49.8,29.79,ENE,67,0.0,6.7,44,0.00,,,0.00,WUHU21623XXSP,2013-05-07 22:23:00,
2013-05-07 18:28:00,72.8,49.6,29.79,NNE,22,0.0,0.0,44,0.00,,,0.00,WUHU21623XXSP,2013-05-07 22:28:00,
2013-05-07 18:34:00,72.4,49.8,29.80,NE,45,0.0,0.0,45,0.00,,,0.00,WUHU21623XXSP,2013-05-07 22:34:00,
2013-05-07 18:39:00,72.4,49.8,29.80,ENE,67,0.0,0.0,45,0.00,,,0.00,WUHU21623XXSP,2013-05-07 22:39:00,
2013-05-07 18:44:00,72.3,49.7,29.80,ESE,112,0.0,0.0,45,0.00,,,0.00,WUHU21623XXSP,2013-05-07 22:44:00,
2013-05-07 18:49:00,71.7,49.2,29.80,North,0,0.0,1.1,45,0.00,,,0.00,WUHU21623XXSP,2013-05-07 22:49:00,
2013-05-07 18:54:00,71.5,49.6,29.80,North,0,0.0,1.1,46,0.00,,,0.00,WUHU21623XXSP,2013-05-07 22:54:00,
2013-05-07 19:01:00,71.2,49.9,29.80,NE,45,0.0,0.0,47,0.00,,,0.00,WUHU21623XXSP,2013-05-07 23:01:00,
2013-05-07 19:06:00,70.8,49.6,29.80,NNE,22,0.0,0.0,47,0.00,,,0.00,WUHU21623XXSP,2013-05-07 23:06:00,
2013-05-07 19:11:00,70.8,49.6,29.80,ENE,67,0.0,0.0,47,0.00,,,0.00,WUHU21623XXSP,2013-05-07 23:11:00,
2013-05-07 19:16:00,70.5,49.3,29.80,NNE,22,0.0,3.6,47,0.00,,,0.00,WUHU21623XXSP,2013-05-07 23:16:00,
2013-05-07 19:21:00,70.1,49.5,29.80,NNW,337,0.0,3.6,48,0.00,,,0.00,WUHU21623XXSP,2013-05-07 23:21:00,
2013-05-07 19:26:00,69.9,49.3,29.80,NNE,22,4.7,4.7,48,0.00,,,0.00,WUHU21623XXSP,2013-05-07 23:26:00,
2013-05-07 19:32:00,69.4,49.4,29.80,NNW,337,0.0,4.7,49,0.00,,,0.00,WUHU21623XXSP,2013-05-07 23:32:00,
2013-05-07 19:37:00,69.0,49.1,29.80,North,0,0.0,0.0,49,0.00,,,0.00,WUHU21623XXSP,2013-05-07 23:37:00,
2013-05-07 19:42:00,68.5,48.6,29.80,North,0,0.0,0.0,49,0.00,,,0.00,WUHU21623XXSP,2013-05-07 23:42:00,
2013-05-07 19:47:00,68.1,48.8,29.80,North,0,0.0,0.0,50,0.00,,,0.00,WUHU21623XXSP,2013-05-07 23:47:00,
2013-05-07 19:52:00,67.6,48.3,29.80,East,90,0.0,0.0,50,0.00,,,0.00,WUHU21623XXSP,2013-05-07 23:52:00,
2013-05-07 20:01:00,66.9,48.2,29.80,NNE,22,0.0,0.0,51,0.00,,,0.00,WUHU21623XXSP,2013-05-08 00:01:00,
2013-05-07 20:06:00,66.7,48.1,29.80,NE,45,0.0,0.0,51,0.00,,,0.00,WUHU21623XXSP,2013-05-08 00:06:00,
2013-05-07 20:11:00,66.3,47.7,29.80,North,0,0.0,0.0,51,0.00,,,0.00,WUHU21623XXSP,2013-05-08 00:11:00,
2013-05-07 20:16:00,66.1,48.0,29.80,North,0,0.0,0.0,52,0.00,,,0.00,WUHU21623XXSP,2013-05-08 00:16:00,
2013-05-07 20:21:00,65.8,47.8,29.80,North,0,0.0,0.0,52,0.00,,,0.00,WUHU21623XXSP,2013-05-08 00:21:00,
2013-05-07 20:26:00,65.6,48.1,29.80,NNE,22,0.0,0.0,53,0.00,,,0.00,WUHU21623XXSP,2013-05-08 00:26:00,
2013-05-07 20:36:00,64.9,47.9,29.80,NNE,22,0.0,0.0,54,0.00,,,0.00,WUHU21623XXSP,2013-05-08 00:36:00,
2013-05-07 20:41:00,64.5,48.1,29.80,NNE,22,0.0,0.0,55,0.00,,,0.00,WUHU21623XXSP,2013-05-08 00:41:00,
2013-05-07 20:46:00,64.2,48.3,29.81,NNE,22,0.0,0.0,56,0.00,,,0.00,WUHU21623XXSP,2013-05-08 00:46:00,
2013-05-07 20:51:00,63.8,47.9,29.81,NNE,22,0.0,0.0,56,0.00,,,0.00,WUHU21623XXSP,2013-05-08 00:51:00,
2013-05-07 20:56:00,63.6,48.2,29.81,NNE,22,0.0,0.0,57,0.00,,,0.00,WUHU21623XXSP,2013-05-08 00:56:00,
2013-05-07 21:01:00,63.3,48.4,29.81,NNE,22,0.0,0.0,58,0.00,,,0.00,WUHU21623XXSP,2013-05-08 01:01:00,
2013-05-07 21:06:00,62.7,47.8,29.81,NNE,22,0.0,0.0,58,0.00,,,0.00,WUHU21623XXSP,2013-05-08 01:06:00,
2013-05-07 21:11:00,62.7,47.8,29.81,NNE,22,0.0,0.0,58,0.00,,,0.00,WUHU21623XXSP,2013-05-08 01:11:00,
2013-05-07 21:16:00,62.5,47.6,29.81,NNE,22,0.0,0.0,58,0.00,,,0.00,WUHU21623XXSP,2013-05-08 01:16:00,
2013-05-07 21:21:00,62.2,47.8,29.81,NNE,22,0.0,0.0,59,0.00,,,0.00,WUHU21623XXSP,2013-05-08 01:21:00,
2013-05-07 21:26:00,62.0,47.6,29.81,NNE,22,0.0,0.0,59,0.00,,,0.00,WUHU21623XXSP,2013-05-08 01:26:00,
2013-05-07 21:31:00,61.6,47.7,29.82,NNE,22,0.0,0.0,60,0.00,,,0.00,WUHU21623XXSP,2013-05-08 01:31:00,
2013-05-07 21:36:00,61.6,47.7,29.82,NNE,22,0.0,0.0,60,0.00,,,0.00,WUHU21623XXSP,2013-05-08 01:36:00,
2013-05-07 21:41:00,61.5,48.1,29.82,NNE,22,0.0,0.0,61,0.00,,,0.00,WUHU21623XXSP,2013-05-08 01:41:00,
2013-05-07 21:46:00,61.1,47.7,29.82,NNE,22,0.0,0.0,61,0.00,,,0.00,WUHU21623XXSP,2013-05-08 01:46:00,
2013-05-07 21:51:00,60.9,47.9,29.82,NNE,22,0.0,0.0,62,0.00,,,0.00,WUHU21623XXSP,2013-05-08 01:51:00,
2013-05-07 21:56:00,60.7,47.7,29.82,NNE,22,0.0,0.0,62,0.00,,,0.00,WUHU21623XXSP,2013-05-08 01:56:00,
2013-05-07 22:01:00,60.4,47.9,29.82,NNE,22,0.0,0.0,63,0.00,,,0.00,WUHU21623XXSP,2013-05-08 02:01:00,
2013-05-07 22:14:00,60.0,47.9,29.82,NNE,22,0.0,0.0,64,0.00,,,0.00,WUHU21623XXSP,2013-05-08 02:14:00,
2013-05-07 22:19:00,60.0,47.9,29.82,NNE,22,0.0,0.0,64,0.00,,,0.00,WUHU21623XXSP,2013-05-08 02:19:00,
2013-05-07 22:25:00,59.8,47.7,29.82,NE,45,0.0,0.0,64,0.00,,,0.00,WUHU21623XXSP,2013-05-08 02:25:00,
2013-05-07 22:33:00,59.8,47.7,29.83,ENE,67,0.0,0.0,64,0.00,,,0.00,WUHU21623XXSP,2013-05-08 02:33:00,
2013-05-07 22:38:00,59.8,47.7,29.83,NE,45,0.0,0.0,64,0.00,,,0.00,WUHU21623XXSP,2013-05-08 02:38:00,
2013-05-07 22:44:00,59.8,47.3,29.83,ENE,67,0.0,0.0,63,0.00,,,0.00,WUHU21623XXSP,2013-05-08 02:44:00,
2013-05-07 22:51:00,60.0,47.5,29.83,NE,45,0.0,0.0,63,0.00,,,0.00,WUHU21623XXSP,2013-05-08 02:51:00,
2013-05-07 22:56:00,60.0,47.1,29.83,ENE,67,0.0,0.0,62,0.00,,,0.00,WUHU21623XXSP,2013-05-08 02:56:00,
2013-05-07 23:01:00,60.0,47.1,29.83,ENE,67,0.0,0.0,62,0.00,,,0.00,WUHU21623XXSP,2013-05-08 03:01:00,
2013-05-07 23:06:00,60.0,47.1,29.83,ENE,67,0.0,0.0,62,0.00,,,0.00,WUHU21623XXSP,2013-05-08 03:06:00,
2013-05-07 23:11:00,60.0,47.1,29.83,ENE,67,0.0,0.0,62,0.00,,,0.00,WUHU21623XXSP,2013-05-08 03:11:00,
2013-05-07 23:16:00,59.7,46.4,29.83,ENE,67,0.0,0.0,61,0.00,,,0.00,WUHU21623XXSP,2013-05-08 03:16:00,
2013-05-07 23:21:00,59.5,46.6,29.83,ENE,67,0.0,0.0,62,0.00,,,0.00,WUHU21623XXSP,2013-05-08 03:21:00,
2013-05-07 23:26:00,59.5,46.6,29.83,ENE,67,0.0,0.0,62,0.00,,,0.00,WUHU21623XXSP,2013-05-08 03:26:00,
2013-05-07 23:31:00,59.3,46.4,29.83,ENE,67,0.0,0.0,62,0.00,,,0.00,WUHU21623XXSP,2013-05-08 03:31:00,
2013-05-07 23:36:00,59.1,45.8,29.83,East,90,0.0,0.0,61,0.00,,,0.00,WUHU21623XXSP,2013-05-08 03:36:00,
2013-05-07 23:41:00,59.1,45.8,29.83,East,90,0.0,0.0,61,0.00,,,0.00,WUHU21623XXSP,2013-05-08 03:41:00,